星链-31420 (STARLINK-31420 )

导读

STARLINK-31420是美国太空探索技术公司(SpaceX)星链(Starlink)互联网卫星星座中的一颗卫星,于2024年3月11日发射入轨,隶属于第二代星链星座。作为星链组网卫星,它旨在通过低轨卫星网络为全球提供高速宽带互联网服务,补充完善星链星座的覆盖能力与服务容量,延续星链星座全球互联的部署目标。

基本信息
目录编号:
59223
目录名称:
STARLINK-31420
国际标识:
2024-046Y
轨道中心:
EARTH
卫星名称:
星链-31420
卫星全名:
星链-31420 (STARLINK-31420 )
卫星状态:
在轨 (已飞行914 天)
发射日期:
2024-03-11 UTC
国别 :
美国 (US)
星等 :
--
该卫星已列入 空间交会检测服务 Space Conjunction Data Service (SCDS) ,当前飞行风险评估等级: 无高风险
轨道信息
数据来源 国际轨道数据
星历时间: 2026-09-11T15:19:07+0800
12小时前
查看轨道信息
半长轴: 6840.891km
偏心率: 0.0001253
轨道倾角: 53.163°
近地点辐角 116.655°
升交点赤经 12.775°
平近点角 243.458°
近地点: 461.896km
远地点: 463.612km
周期: 93.849分钟
每日圈数: 15.343832
详细信息
固有亮度:
5
最大亮度:
0.3
卫星平台:
Starlink v2.0 mini
覆盖范围:
全球
运营商:
太空探索技术公司
运营商所在国:
美国
制造商(研发单位):
太空探索技术公司
制造商所在国:
美国
使用方式:
暂无
卫星简介
星链(Starlink)计划是由太空探索技术公司(SpaceX)提出的一个巨型低轨卫星互联网星座项目,计划在2019年至2024年间在太空搭建由约1.2万颗卫星组成的“星链”网络,其中1584颗将部署在地球上空550千米处的近地轨道,并从2020年开始工作。该卫星仍在工作。
2D轨道图
3D轨道图
轨道高度分析图
轨道倾角分析图
轨道综合分析图
查看轨道综合分析图
与全量物体交会距离演化趋势
与全量物体交会风险概率演化趋势